Time,TemperatureF,DewpointF,PressureIn,WindDirection,WindDirectionDegrees,WindSpeedMPH,WindSpeedGustMPH,Humidity,HourlyPrecipIn,Conditions,Clouds,dailyrainin,SoftwareType,DateUTC
2013-03-26 00:09:00,32.2,31.7,29.59,NW,315,0.0,-999.0,98,-99.99,,,0.00,Acu-Link.com,2013-03-26 04:09:00,
2013-03-26 00:25:00,32.2,31.7,29.60,NW,315,0.0,-999.0,98,-99.99,,,0.00,Acu-Link.com,2013-03-26 04:25:00,
2013-03-26 01:02:00,32.0,31.5,29.61,West,270,0.0,-999.0,98,-99.99,,,0.00,Acu-Link.com,2013-03-26 05:02:00,
2013-03-26 01:18:00,31.6,31.1,29.61,West,270,0.0,-999.0,98,-99.99,,,0.00,Acu-Link.com,2013-03-26 05:18:00,
2013-03-26 01:35:00,31.5,31.0,29.62,SW,225,0.0,-999.0,98,-99.99,,,0.00,Acu-Link.com,2013-03-26 05:35:00,
2013-03-26 01:51:00,31.3,30.8,29.62,West,270,0.0,-999.0,98,-99.99,,,0.00,Acu-Link.com,2013-03-26 05:51:00,
2013-03-26 02:22:00,31.3,30.8,29.63,NNE,22,0.0,-999.0,98,-99.99,,,0.00,Acu-Link.com,2013-03-26 06:22:00,
2013-03-26 02:37:00,31.3,30.8,29.63,WNW,292,0.0,-999.0,98,-99.99,,,0.00,Acu-Link.com,2013-03-26 06:37:00,
2013-03-26 02:58:00,31.3,30.8,29.63,SW,225,0.0,-999.0,98,-99.99,,,0.00,Acu-Link.com,2013-03-26 06:58:00,
2013-03-26 03:14:00,31.3,30.8,29.64,North,0,0.0,-999.0,98,-99.99,,,0.00,Acu-Link.com,2013-03-26 07:14:00,
2013-03-26 03:34:00,31.3,30.8,29.65,West,270,0.0,-999.0,98,-99.99,,,0.00,Acu-Link.com,2013-03-26 07:34:00,
2013-03-26 03:51:00,31.1,30.6,29.66,West,270,0.0,-999.0,98,-99.99,,,0.00,Acu-Link.com,2013-03-26 07:51:00,
2013-03-26 04:08:00,30.9,30.4,29.65,West,270,0.0,-999.0,98,-99.99,,,0.00,Acu-Link.com,2013-03-26 08:08:00,
2013-03-26 04:25:00,30.9,30.4,29.65,NW,315,0.0,-999.0,98,-99.99,,,0.00,Acu-Link.com,2013-03-26 08:25:00,
2013-03-26 04:41:00,30.9,30.4,29.66,WNW,292,0.0,-999.0,98,-99.99,,,0.00,Acu-Link.com,2013-03-26 08:41:00,
2013-03-26 04:57:00,30.9,30.4,29.66,WSW,247,0.0,-999.0,98,-99.99,,,0.00,Acu-Link.com,2013-03-26 08:57:00,
2013-03-26 05:12:00,30.9,30.4,29.67,West,270,0.0,-999.0,98,-99.99,,,0.00,Acu-Link.com,2013-03-26 09:12:00,
2013-03-26 05:27:00,30.9,30.4,29.68,West,270,0.0,-999.0,98,-99.99,,,0.00,Acu-Link.com,2013-03-26 09:27:00,
2013-03-26 05:43:00,30.9,30.4,29.68,WNW,292,0.0,-999.0,98,-99.99,,,0.00,Acu-Link.com,2013-03-26 09:43:00,
2013-03-26 06:02:00,30.9,30.4,29.69,West,270,0.0,-999.0,98,-99.99,,,0.00,Acu-Link.com,2013-03-26 10:02:00,
2013-03-26 06:19:00,30.7,30.2,29.69,West,270,0.0,-999.0,98,-99.99,,,0.00,Acu-Link.com,2013-03-26 10:19:00,
2013-03-26 06:38:00,30.6,30.1,29.70,WNW,292,0.0,-999.0,98,-99.99,,,0.00,Acu-Link.com,2013-03-26 10:38:00,
2013-03-26 06:54:00,30.2,29.7,29.71,West,270,0.0,-999.0,98,-99.99,,,0.00,Acu-Link.com,2013-03-26 10:54:00,
2013-03-26 07:09:00,29.8,29.3,29.72,NNE,22,0.0,-999.0,98,-99.99,,,0.00,Acu-Link.com,2013-03-26 11:09:00,
2013-03-26 07:24:00,29.1,28.6,29.73,West,270,0.0,-999.0,98,-99.99,,,0.00,Acu-Link.com,2013-03-26 11:24:00,
2013-03-26 07:46:00,28.4,27.9,29.74,West,270,0.0,-999.0,98,-99.99,,,0.00,Acu-Link.com,2013-03-26 11:46:00,
2013-03-26 08:03:00,29.1,28.6,29.76,WNW,292,0.0,-999.0,98,-99.99,,,0.00,Acu-Link.com,2013-03-26 12:03:00,
2013-03-26 08:18:00,29.5,29.0,29.77,NW,315,0.0,-999.0,98,-99.99,,,0.00,Acu-Link.com,2013-03-26 12:18:00,
2013-03-26 08:34:00,30.7,30.2,29.77,SW,225,0.0,-999.0,98,-99.99,,,0.00,Acu-Link.com,2013-03-26 12:34:00,
2013-03-26 08:51:00,31.1,30.6,29.78,SW,225,0.0,-999.0,98,-99.99,,,0.00,Acu-Link.com,2013-03-26 12:51:00,
2013-03-26 09:08:00,33.6,32.8,29.78,WNW,292,0.0,-999.0,97,-99.99,,,0.00,Acu-Link.com,2013-03-26 13:08:00,
2013-03-26 09:23:00,35.6,33.8,29.79,West,270,0.0,-999.0,93,-99.99,,,0.00,Acu-Link.com,2013-03-26 13:23:00,
2013-03-26 09:38:00,34.7,32.6,29.78,West,270,0.0,-999.0,92,-99.99,,,0.00,Acu-Link.com,2013-03-26 13:38:00,
2013-03-26 09:56:00,35.8,32.3,29.79,West,270,0.0,-999.0,87,-99.99,,,0.00,Acu-Link.com,2013-03-26 13:56:00,
2013-03-26 10:13:00,36.3,33.1,29.79,West,270,0.0,-999.0,88,-99.99,,,0.01,Acu-Link.com,2013-03-26 14:13:00,
2013-03-26 10:33:00,36.7,36.2,29.80,NW,315,1.1,-999.0,98,-99.99,,,0.02,Acu-Link.com,2013-03-26 14:33:00,
2013-03-26 11:09:00,36.7,36.2,29.80,SW,225,2.7,-999.0,98,-99.99,,,0.05,Acu-Link.com,2013-03-26 15:09:00,
2013-03-26 11:32:00,36.7,36.2,29.80,SW,225,1.7,-999.0,98,-99.99,,,0.08,Acu-Link.com,2013-03-26 15:32:00,
2013-03-26 11:50:00,37.9,37.4,29.79,SW,225,0.0,-999.0,98,-99.99,,,0.10,Acu-Link.com,2013-03-26 15:50:00,
2013-03-26 12:05:00,38.5,38.0,29.81,SW,225,0.0,-999.0,98,-99.99,,,0.12,Acu-Link.com,2013-03-26 16:05:00,
2013-03-26 12:21:00,40.6,40.1,29.81,WSW,247,0.0,-999.0,98,-99.99,,,0.15,Acu-Link.com,2013-03-26 16:21:00,
2013-03-26 12:38:00,37.4,36.9,29.81,WNW,292,0.0,-999.0,98,-99.99,,,0.17,Acu-Link.com,2013-03-26 16:38:00,
2013-03-26 12:54:00,39.6,39.1,29.81,SW,225,0.0,-999.0,98,-99.99,,,0.18,Acu-Link.com,2013-03-26 16:54:00,
2013-03-26 13:15:00,38.7,38.2,29.80,West,270,0.0,-999.0,98,-99.99,,,0.20,Acu-Link.com,2013-03-26 17:15:00,
2013-03-26 13:33:00,38.7,38.2,29.80,West,270,0.0,-999.0,98,-99.99,,,0.24,Acu-Link.com,2013-03-26 17:33:00,
2013-03-26 13:49:00,42.1,41.6,29.80,West,270,4.2,-999.0,98,-99.99,,,0.26,Acu-Link.com,2013-03-26 17:49:00,
2013-03-26 14:22:00,43.2,42.7,29.79,WSW,247,8.3,-999.0,98,-99.99,,,0.27,Acu-Link.com,2013-03-26 18:22:00,
2013-03-26 14:37:00,43.3,42.8,29.80,West,270,9.9,-999.0,98,-99.99,,,0.27,Acu-Link.com,2013-03-26 18:37:00,
2013-03-26 14:57:00,42.8,42.3,29.79,WSW,247,0.0,-999.0,98,-99.99,,,0.27,Acu-Link.com,2013-03-26 18:57:00,
2013-03-26 15:16:00,41.7,40.9,29.79,SW,225,0.0,-999.0,97,-99.99,,,0.27,Acu-Link.com,2013-03-26 19:16:00,
2013-03-26 15:34:00,41.9,41.4,29.79,WNW,292,0.0,-999.0,98,-99.99,,,0.27,Acu-Link.com,2013-03-26 19:34:00,
2013-03-26 15:51:00,41.5,38.8,29.79,West,270,0.0,-999.0,90,-99.99,,,0.27,Acu-Link.com,2013-03-26 19:51:00,
2013-03-26 16:07:00,41.7,39.3,29.79,West,270,0.0,-999.0,91,-99.99,,,0.27,Acu-Link.com,2013-03-26 20:07:00,
2013-03-26 16:22:00,41.4,39.3,29.79,West,270,4.7,-999.0,92,-99.99,,,0.27,Acu-Link.com,2013-03-26 20:22:00,
2013-03-26 16:39:00,41.4,39.5,29.79,WSW,247,11.9,-999.0,93,-99.99,,,0.27,Acu-Link.com,2013-03-26 20:39:00,
2013-03-26 16:56:00,37.6,37.1,29.81,West,270,1.1,-999.0,98,-99.99,,,0.27,Acu-Link.com,2013-03-26 20:56:00,
2013-03-26 17:11:00,34.2,33.7,29.81,NNE,22,0.0,-999.0,98,-99.99,,,0.27,Acu-Link.com,2013-03-26 21:11:00,
2013-03-26 17:28:00,34.0,33.5,29.82,WNW,292,0.0,-999.0,98,-99.99,,,0.27,Acu-Link.com,2013-03-26 21:28:00,
2013-03-26 17:44:00,34.7,34.2,29.82,West,270,0.0,-999.0,98,-99.99,,,0.27,Acu-Link.com,2013-03-26 21:44:00,
2013-03-26 17:59:00,34.2,33.7,29.84,SW,225,0.0,-999.0,98,-99.99,,,0.27,Acu-Link.com,2013-03-26 21:59:00,
2013-03-26 18:20:00,34.0,32.7,29.83,SE,135,0.0,-999.0,95,-99.99,,,0.27,Acu-Link.com,2013-03-26 22:20:00,
2013-03-26 18:37:00,34.2,31.6,29.84,ESE,112,0.0,-999.0,90,-99.99,,,0.27,Acu-Link.com,2013-03-26 22:37:00,
2013-03-26 18:53:00,34.2,31.3,29.84,SSW,202,0.0,-999.0,89,-99.99,,,0.28,Acu-Link.com,2013-03-26 22:53:00,
2013-03-26 19:09:00,33.8,30.6,29.85,North,0,0.0,-999.0,88,-99.99,,,0.28,Acu-Link.com,2013-03-26 23:09:00,
2013-03-26 19:27:00,33.8,31.2,29.85,South,180,0.0,-999.0,90,-99.99,,,0.28,Acu-Link.com,2013-03-26 23:27:00,
2013-03-26 19:48:00,33.6,31.0,29.85,West,270,0.0,-999.0,90,-99.99,,,0.28,Acu-Link.com,2013-03-26 23:48:00,
2013-03-26 20:03:00,33.4,30.2,29.85,SW,225,0.0,-999.0,88,-99.99,,,0.28,Acu-Link.com,2013-03-27 00:03:00,
2013-03-26 20:25:00,33.4,30.8,29.85,WSW,247,0.0,-999.0,90,-99.99,,,0.28,Acu-Link.com,2013-03-27 00:25:00,
2013-03-26 20:44:00,34.0,30.8,29.86,WNW,292,0.0,-999.0,88,-99.99,,,0.28,Acu-Link.com,2013-03-27 00:44:00,
2013-03-26 21:01:00,34.0,31.1,29.86,West,270,0.0,-999.0,89,-99.99,,,0.28,Acu-Link.com,2013-03-27 01:01:00,
2013-03-26 21:18:00,34.0,31.1,29.85,West,270,0.0,-999.0,89,-99.99,,,0.28,Acu-Link.com,2013-03-27 01:18:00,
2013-03-26 21:55:00,34.0,32.5,29.88,WNW,292,0.0,-999.0,94,-99.99,,,0.29,Acu-Link.com,2013-03-27 01:55:00,
2013-03-26 22:27:00,34.2,32.1,29.89,South,180,0.0,-999.0,92,-99.99,,,0.29,Acu-Link.com,2013-03-27 02:27:00,
2013-03-26 22:42:00,33.4,30.0,29.89,WNW,292,0.0,-999.0,87,-99.99,,,0.29,Acu-Link.com,2013-03-27 02:42:00,
2013-03-26 22:58:00,33.3,29.6,29.89,West,270,0.0,-999.0,86,-99.99,,,0.29,Acu-Link.com,2013-03-27 02:58:00,
2013-03-26 23:15:00,33.3,29.6,29.90,NW,315,0.0,-999.0,86,-99.99,,,0.29,Acu-Link.com,2013-03-27 03:15:00,
2013-03-26 23:34:00,33.3,29.6,29.90,SW,225,0.0,-999.0,86,-99.99,,,0.29,Acu-Link.com,2013-03-27 03:34:00,